Location: Acts Church of Fort Worth
(32.6786°N, 97.2668°W)
Time: 23:17:19
(UTC+00:00)

SKYMED 2 - Pass Details

Date: 18 January 2026
Orbit: 622 x 624 km, 97.9° (Epoch: 13 February)

Event Time Altitude Azimuth Distance (km) Brightness Sun altitude
Rises 11:47:32 0° 167° (SSE) 2,888 7.3 -21.5°
Reaches altitude 10° 11:49:43 10° 167° (SSE) 1,985 6.4 -21.0°
Maximum altitude 11:54:02 89° 97° (E) 628 3.5 -20.1°
Enters shadow 11:57:33 16° 348° (NNW) 1,650 5.5 -19.4°
